EJU18QX LPPR-LEIB

Flight info

Callsign EJU18QX
Flight time N/A
Altitude 32000
Route BELDU DCT ADORO L155 ZMR DCT PDT M871 NANDO T257 LASPO Z224 VARUT
Aircraft A320/M-SDE2E3FGHIJ1RWXYZ/LB1

Departure

Time N/A
Airport Francisco de Sá Carneiro Airport (LPPR)

Arrival

Time 2026-05-01 07:48
Airport Ibiza Airport (LEIB)
Time Latitude Longitude Altitude Speed Heading
2026-05-01 07:23 39.60373 -1.27508 32196 ft 436 kts 123°
2026-05-01 07:24 39.55906 -1.17228 32196 ft 436 kts 122°
2026-05-01 07:24 39.52915 -1.10381 32190 ft 437 kts 123°
2026-05-01 07:25 39.49913 -1.03546 32190 ft 437 kts 123°
2026-05-01 07:25 39.46907 -0.96703 32190 ft 437 kts 123°
2026-05-01 07:26 39.43908 -0.89864 32179 ft 437 kts 123°
2026-05-01 07:26 39.40903 -0.83018 32182 ft 438 kts 123°
2026-05-01 07:27 39.37891 -0.76184 32171 ft 438 kts 123°
2026-05-01 07:27 39.34869 -0.69351 32166 ft 438 kts 123°
2026-05-01 07:28 39.31842 -0.62535 32170 ft 437 kts 123°
2026-05-01 07:28 39.28856 -0.55694 32166 ft 439 kts 119°
2026-05-01 07:29 39.26951 -0.48212 32159 ft 444 kts 108°
2026-05-01 07:29 39.26152 -0.44334 31346 ft 451 kts 108°
2026-05-01 07:29 39.25332 -0.40386 30196 ft 461 kts 108°
2026-05-01 07:29 39.24499 -0.36403 29547 ft 456 kts 108°
2026-05-01 07:30 39.23677 -0.32486 28983 ft 449 kts 108°
2026-05-01 07:30 39.22865 -0.28618 28372 ft 444 kts 108°
2026-05-01 07:30 39.22062 -0.24799 27769 ft 440 kts 108°
2026-05-01 07:30 39.21262 -0.21007 27053 ft 438 kts 108°
2026-05-01 07:31 39.20455 -0.17202 26222 ft 440 kts 107°
2026-05-01 07:31 39.18266 -0.06871 24507 ft 432 kts 107°
2026-05-01 07:32 39.16698 0.00537 23294 ft 425 kts 107°
2026-05-01 07:32 39.15938 0.04121 22903 ft 415 kts 108°
2026-05-01 07:33 39.14471 0.11028 22620 ft 386 kts 107°
2026-05-01 07:33 39.13766 0.14324 22272 ft 379 kts 107°
2026-05-01 07:33 39.12367 0.20811 21089 ft 379 kts 108°
2026-05-01 07:34 39.11657 0.24101 20465 ft 381 kts 107°
2026-05-01 07:34 39.10256 0.30626 19506 ft 376 kts 107°
2026-05-01 07:34 39.09560 0.33863 19016 ft 374 kts 107°
2026-05-01 07:35 39.08874 0.37041 18550 ft 373 kts 107°
2026-05-01 07:35 39.08175 0.40249 18018 ft 371 kts 107°
2026-05-01 07:35 39.07481 0.43427 17550 ft 368 kts 108°
2026-05-01 07:35 39.06793 0.46588 17081 ft 365 kts 107°
2026-05-01 07:36 39.06111 0.49724 16633 ft 362 kts 107°
2026-05-01 07:36 39.05434 0.52838 16177 ft 360 kts 108°
2026-05-01 07:36 39.04732 0.55910 15808 ft 354 kts 113°
2026-05-01 07:36 39.03749 0.58739 15729 ft 340 kts 116°
2026-05-01 07:37 39.01808 0.64228 14978 ft 337 kts 115°
2026-05-01 07:37 39.00841 0.66971 14544 ft 337 kts 115°
2026-05-01 07:37 38.99873 0.69711 14108 ft 337 kts 115°
2026-05-01 07:38 38.98898 0.72461 13647 ft 338 kts 115°
2026-05-01 07:38 38.97922 0.75208 13199 ft 337 kts 115°
2026-05-01 07:38 38.95983 0.80651 12292 ft 333 kts 115°
2026-05-01 07:39 38.95020 0.83349 11859 ft 331 kts 115°
2026-05-01 07:39 38.94063 0.86030 11423 ft 329 kts 115°
2026-05-01 07:39 38.92157 0.91355 10516 ft 327 kts 115°
2026-05-01 07:40 38.91221 0.93970 10313 ft 317 kts 115°
2026-05-01 07:40 38.90205 0.96415 10191 ft 304 kts 126°
2026-05-01 07:40 38.88804 0.98369 10021 ft 294 kts 141°
2026-05-01 07:40 38.87079 0.99788 9531 ft 290 kts 154°
2026-05-01 07:41 38.85349 1.00981 9181 ft 277 kts 152°
2026-05-01 07:41 38.83673 1.02146 8658 ft 272 kts 152°
2026-05-01 07:41 38.80364 1.04392 7515 ft 267 kts 151°
2026-05-01 07:42 38.78731 1.05494 6943 ft 264 kts 150°
2026-05-01 07:42 38.77126 1.06629 6350 ft 261 kts 143°
2026-05-01 07:42 38.76039 1.08391 5785 ft 252 kts 106°
2026-05-01 07:42 38.75893 1.09835 5391 ft 246 kts 81°
2026-05-01 07:43 38.76527 1.11825 4748 ft 244 kts 55°
2026-05-01 07:43 38.77430 1.13669 4132 ft 244 kts 58°
2026-05-01 07:43 38.79266 1.18013 3188 ft 223 kts 60°
2026-05-01 07:44 38.80428 1.20805 2690 ft 208 kts 60°
2026-05-01 07:44 38.81726 1.23923 2103 ft 184 kts 60°
2026-05-01 07:45 38.82307 1.25321 1870 ft 173 kts 59°
2026-05-01 07:45 38.82863 1.26656 1639 ft 167 kts 60°
2026-05-01 07:45 38.83396 1.27938 1446 ft 160 kts 60°
2026-05-01 07:45 38.83910 1.29176 1221 ft 153 kts 60°
2026-05-01 07:46 38.84391 1.30334 1035 ft 139 kts 60°
2026-05-01 07:46 38.84838 1.31410 833 ft 135 kts 61°
2026-05-01 07:46 38.85723 1.33537 492 ft 133 kts 62°
2026-05-01 07:47 38.86159 1.34587 304 ft 133 kts 62°
2026-05-01 07:47 38.86588 1.35624 113 ft 129 kts 62°
2026-05-01 07:47 38.87000 1.36608 9 ft 114 kts 61°
2026-05-01 07:47 38.87299 1.37346 10 ft 64 kts 62°
2026-05-01 07:48 38.87500 1.37781 11 ft 16 kts 40°
2026-05-01 07:48 38.87596 1.37867 11 ft 15 kts 32°
2026-05-01 07:48 38.87671 1.37915 10 ft 9 kts 357°
2026-05-01 07:49 38.87694 1.37849 9 ft 9 kts 257°
2026-05-01 07:49 38.87636 1.37716 10 ft 10 kts 241°
2026-05-01 07:49 38.87603 1.37634 10 ft 10 kts 242°
2026-05-01 07:50 38.87588 1.37557 9 ft 8 kts 311°
2026-05-01 07:50 38.87699 1.37456 8 ft 11 kts 284°
2026-05-01 07:50 38.87669 1.37360 8 ft 12 kts 241°
2026-05-01 07:51 38.87625 1.37254 10 ft 15 kts 242°
2026-05-01 07:51 38.87579 1.37142 8 ft 14 kts 243°
2026-05-01 07:51 38.87543 1.37054 8 ft 5 kts 242°
2026-05-01 07:52 38.87575 1.37003 8 ft 3 kts 330°
2026-05-01 07:52 38.87590 1.36993 8 ft 1 kts 332°
2026-05-01 07:52 38.87592 1.36992 8 ft 0 kts 332°